sat.trackr.live / text

‹ back to catalog

STARLINK-32274

NORAD 60922 · 2024-154V

PAYLOAD ACTIVE UNKNOWN

§ Identity

Operator
Country
US
Launch date
2024-08-31
Launch site
AFETR
Launch vehicle
Mass (kg)
RCS (m²)

Purposes: comms

External: N2YO · Heavens-Above · Gunter

§ Orbital elements

Epoch: 2026-09-21T19:22:42.366720Z

Period
93.85 min
Inclination
53.1604°
Eccentricity
0.0001219
Mean motion
15.34391112 rev/d
Perigee alt
461.9 km
Apogee alt
463.6 km
Semi-major
6,840.9 km
B*
-5.4338e-6
RAAN
91.3232°
Arg perigee
92.0247°
Mean anomaly
268.0895°
Rev number
11,639

§ Raw data

STARLINK-322741 60922U 24154V   26264.80743480 -.00000560  00000+0 -54338-5 0  99992 60922  53.1604  91.3232 0001219  92.0247 268.0895 15.34391112116395

JSON: /api/v1/satellites/60922 · /tle

For live sub-satellite position, see the globe view (requires WebGL).

§ Visibility from observer

Set your observer location to see the next 7 days of passes ≥ 10°. The values pass through the URL so the page stays shareable.

No JS? Fill the form by hand. The geolocation button needs JavaScript.